Miscellaneous Local Product
Issued by NWS Hastings, NE

Home | Current Version | Previous Version | Graphics & Text | Print | Product List | Glossary Off
Versions: 1 2 3 4 5 6 7 8 9 10 11 12 13 14 15 16 17 18 19 20 21 22 23 24 25 26 27 28 29 30 31 32 33 34 35 36 37 38 39 40 41 42 43 44 45 46 47 48 49 50

771
AXUS43 KGID 261602
MISGRI

GID CWA HOURLY WEATHER ROUNDUP
NATIONAL WEATHER SERVICE HASTINGS NE
1100 AM CDT TUE JUL 26 2016

NOTE: "FAIR" INDICATES FEW OR NO CLOUDS BELOW 12,000 FEET WITH NO
SIGNIFICANT WEATHER AND/OR OBSTRUCTIONS TO VISIBILITY.

...SOUTH CENTRAL NEBRASKA...

CITY           SKY/WX    TMP DP  RH WIND       PRES   REMARKS
GRAND ISLAND   SUNNY     81  64  56 S13G21    30.10F
HASTINGS       SUNNY     79  65  62 S9        30.10F
KEARNEY        SUNNY     79  66  65 S12       30.10F
ORD            SUNNY     78  66  66 S12       30.07S
YORK           SUNNY     79  66  65 SE6       30.10S
AURORA         SUNNY     79  66  64 S9        30.10S
LEXINGTON      SUNNY     76  66  71 S10       30.10F
HOLDREGE       MOSUNNY   77  66  67 S9        30.10S
HEBRON         SUNNY     81  67  63 SE7       30.08S

...NEBRASKA PANHANDLE...

CITY           SKY/WX    TMP DP  RH WIND       PRES   REMARKS
CHADRON        MOSUNNY   78  61  55 E12       30.06F
ALLIANCE       SUNNY     76  63  64 S21       30.06F
SCOTTSBLUFF    SUNNY     82  55  39 SE7       30.05F
SIDNEY         SUNNY     80  61  52 S16       30.11F

...WESTERN AND NORTH CENTRAL NEBRASKA...

CITY           SKY/WX    TMP DP  RH WIND       PRES   REMARKS
VALENTINE      SUNNY     83  63  50 SW17      30.05S
AINSWORTH      SUNNY     81  68  64 S15       30.06S
ONEILL         SUNNY     82  58  44 S12       30.07F
BROKEN BOW     SUNNY     76  67  73 S14       30.09F
IMPERIAL       SUNNY     79  66  64 S17       30.08F
NORTH PLATTE   SUNNY     79  66  64 S15       30.08F
MCCOOK         SUNNY     79  66  64 S12       30.09F

...EASTERN NEBRASKA...

CITY           SKY/WX    TMP DP  RH WIND       PRES   REMARKS
NORFOLK        SUNNY     80  65  59 S15       30.09R
SO SIOUX CITY  SUNNY     83  68  60 SW10      30.08R
TEKAMAH        SUNNY     82  65  56 SE9       30.09R
COLUMBUS       SUNNY     79  64  61 S8        30.09F
ALBION         SUNNY     78  66  66 S13       30.09S
OMAHA EPPLEY   MOSUNNY   83  63  50 SE13      30.08S
OFFUTT AFB     SUNNY     82  66  58 SE8       30.08S
MILLARD        SUNNY     82  65  57 SE9       30.08S
LINCOLN        MOSUNNY   83  68  60 SE9       30.09F
NEBRASKA CITY  SUNNY     79  64  60 SE6       30.09F
BEATRICE       SUNNY     82  65  57 SE8       30.08F
FALLS CITY     SUNNY     80  69  69 SE7       30.07F

...NORTHERN KANSAS...

CITY           SKY/WX    TMP DP  RH WIND       PRES   REMARKS
GOODLAND       MOSUNNY   76  66  71 S15       30.13S
HILL CITY      PTSUNNY   77  67  71 S8        30.10F
NORTON         MOSUNNY   79  63  57 S12       30.10S
SMITH CENTER   MOSUNNY   79  66  65 S7        30.10S
BELOIT         MOSUNNY   79  70  73 CALM      30.06F
HAYS           CLOUDY    75  63  64 S3        30.10S
RUSSELL        PTSUNNY   79  69  71 S6        30.07F
CONCORDIA      SUNNY     79  68  69 SE7       30.08S
SALINA         PTSUNNY   83  70  64 VRB6      30.06F



USA.gov is the U.S. government's official web portal to all federal, state and local government web resources and services.